EW3708 Weather Reports


time (UTC)temp
C
wind
direction
speed
KPH
gust
KPH
rain 1hr
cm
rain 24hr
cm
rain mn
cm
humidity
%
barometer
mb
20260904200034 24 188 1.6 4.8 0.00 0.53 0.08 69 1010.6
20260904194543 24 226 1.6 6.4 0.00 0.53 0.08 66 1010.9
20260904193023 25 304 1.6 6.4 0.00 0.53 0.08 68 1010.9
20260904191535 25 302 1.6 6.4 0.00 0.53 0.08 67 1010.9
20260904190021 25 310 3.2 6.4 0.00 0.53 0.08 65 1011.0
20260904184519 25 310 1.6 6.4 0.00 0.53 0.08 67 1011.1
20260904183016 25 261 1.6 6.4 0.00 0.53 0.08 70 1011.4
20260904181515 24 269 1.6 4.8 0.00 0.53 0.08 73 1011.4
20260904180013 24 286 3.2 6.4 0.00 0.53 0.08 71 1011.4
20260904174521 24 319 1.6 4.8 0.00 0.53 0.08 68 1011.4
20260904173012 24 167 1.6 4.8 0.00 0.53 0.08 73 1011.4
20260904171511 23 289 0.0 6.4 0.00 0.53 0.08 72 1011.4
20260904170010 24 329 3.2 6.4 0.00 0.53 0.08 73 1011.5
20260904164508 23 306 1.6 4.8 0.00 0.53 0.08 76 1011.5
20260904163007 23 360 1.6 4.8 0.00 0.53 0.08 75 1011.6
20260904161506 23 273 1.6 4.8 0.00 0.53 0.08 77 1011.6
20260904160007 23 319 1.6 6.4 0.00 0.53 0.08 75 1011.7
20260904154503 23 295 3.2 6.4 0.00 0.53 0.08 76 1011.7
20260904153115 22 310 1.6 6.4 0.00 0.53 0.08 83 1011.7
20260904151600 21 292 3.2 8.0 0.00 0.53 0.08 84 1011.6
20260904150054 21 301 0.0 6.4 0.00 0.53 0.08 87 1011.9
20260904144513 21 300 0.0 4.8 0.00 0.53 0.08 91 1011.8
20260904143041 20 304 1.6 4.8 0.00 0.53 0.08 91 1011.9
20260904141538 20 310 1.6 8.0 0.00 0.53 0.08 92 1011.9
20260904140042 20 296 1.6 6.4 0.00 0.53 0.08 94 1011.8
20260904134544 20 240 0.0 3.2 0.00 0.53 0.08 95 1011.6
20260904133037 20 237 1.6 4.8 0.00 0.53 0.08 94 1011.5
20260904131536 20 236 0.0 3.2 0.00 0.53 0.08 95 1011.3
20260904130036 20 226 1.6 4.8 0.00 0.53 0.08 95 1011.6
20260904124540 20 226 0.0 3.2 0.00 0.53 0.08 95 1011.8
20260904123043 20 157 0.0 3.2 0.00 0.53 0.08 95 1011.7
20260904121533 20 131 0.0 3.2 0.00 0.53 0.08 95 1011.8
20260904120031 20 131 0.0 1.6 0.00 0.53 0.08 95 1011.8
20260904114530 20 131 0.0 3.2 0.00 0.53 0.08 95 1011.9
20260904113029 20 88 0.0 1.6 0.00 0.53 0.08 95 1011.7
20260904111528 20 88 0.0 1.6 0.00 0.53 0.08 95 1011.2
20260904110037 20 88 0.0 1.6 0.00 0.53 0.08 95 1011.3
20260904104527 20 88 0.0 1.6 0.00 0.56 0.08 95 1011.0
20260904103026 20 88 0.0 1.6 0.00 0.56 0.08 95 1011.0
20260904101525 20 88 0.0 0.0 0.00 0.56 0.08 95 1011.0
20260904100025 20 88 0.0 3.2 0.00 0.56 0.08 95 1011.0
20260904094523 20 88 0.0 3.2 0.00 0.56 0.08 95 1011.0
20260904093023 20 88 0.0 3.2 0.00 0.56 0.08 95 1011.0
20260904091622 20 88 0.0 1.6 0.00 0.56 0.08 95 1010.9
20260904090023 20 88 0.0 0.0 0.00 0.56 0.08 95 1011.0
20260904084523 20 88 0.0 1.6 0.00 0.56 0.08 95 1011.0
20260904083023 20 88 0.0 1.6 0.00 0.56 0.08 95 1011.0
20260904081520 19 88 0.0 1.6 0.00 0.56 0.08 94 1010.9
20260904080019 20 88 0.0 1.6 0.00 0.56 0.08 95 1010.9
20260904074518 19 88 0.0 1.6 0.00 0.79 0.08 95 1010.8
20260904073020 19 88 0.0 1.6 0.00 0.79 0.08 94 1010.6
20260904071517 19 88 0.0 0.0 0.00 0.79 0.08 94 1010.2
20260904070035 19 88 0.0 0.0 0.00 0.79 0.08 94 1010.1
20260904064516 19 88 0.0 1.6 0.00 0.91 0.08 94 1010.2
20260904063016 20 88 0.0 0.0 0.00 0.91 0.08 94 1010.2
20260904061513 20 88 0.0 1.6 0.00 0.91 0.08 95 1010.5
20260904060012 20 88 0.0 0.0 0.00 0.91 0.08 94 1010.5
20260904054522 20 88 0.0 0.0 0.00 1.04 0.08 94 1010.6
20260904053009 20 88 0.0 1.6 0.03 1.04 0.08 94 1010.6
20260904051510 20 88 0.0 1.6 0.03 1.04 0.08 94 1010.9
20260904050014 20 88 0.0 1.6 0.03 1.04 0.08 94 1010.9
20260904044505 20 88 0.0 1.6 0.15 1.30 0.08 94 1011.1
20260904043011 20 88 0.0 1.6 0.13 1.27 0.05 94 1011.2
20260904041503 20 88 0.0 1.6 0.13 1.27 0.05 94 1011.5
20260904040001 20 88 0.0 3.2 0.13 1.27 0.05 93 1011.5
20260904034601 20 88 0.0 1.6 0.00 1.91 1.14 93 1011.6
20260904033100 20 88 0.0 0.0 0.00 1.91 1.14 93 1011.9
20260904031559 20 88 0.0 0.0 0.00 1.91 1.14 93 1012.0
20260904024600 20 88 0.0 1.6 0.00 1.98 1.14 92 1011.6
20260904023102 20 88 0.0 1.6 0.23 1.98 1.14 92 1011.6
20260904021600 20 88 0.0 3.2 0.38 1.98 1.14 92 1011.5
20260904020058 20 88 0.0 0.0 0.38 1.98 1.14 92 1012.4
20260904014558 21 88 1.6 4.8 0.38 1.98 1.14 91 1012.2
20260904013055 22 260 3.2 6.4 0.13 1.73 0.89 92 1013.4
20260904011609 22 114 0.0 1.6 0.00 1.60 0.76 91 1012.4
20260904010105 22 114 0.0 3.2 0.00 1.60 0.76 90 1012.5
20260904004556 22 114 0.0 1.6 0.00 1.60 0.76 89 1012.4
20260904003051 22 114 0.0 1.6 0.00 1.60 0.76 89 1012.4
20260904001551 22 114 0.0 1.6 0.00 1.60 0.76 88 1012.4
20260904000058 23 114 0.0 3.2 0.00 1.60 0.76 87 1012.0
20260903234550 23 114 0.0 1.6 0.00 1.60 0.76 86 1011.9
20260903233049 23 114 0.0 0.0 0.00 1.60 0.76 86 1011.9
20260903231553 24 114 0.0 1.6 0.00 1.60 0.76 84 1011.9
20260903230050 24 114 0.0 1.6 0.00 1.60 0.76 82 1012.4
20260903224548 25 114 0.0 0.0 0.00 1.60 0.76 81 1011.9
20260903223044 25 114 0.0 1.6 0.00 1.60 0.76 79 1011.7
20260903221543 25 114 0.0 3.2 0.00 1.60 0.76 79 1011.6
20260903220041 25 154 0.0 3.2 0.00 1.60 0.76 79 1012.0
20260903214543 25 154 0.0 3.2 0.00 1.60 0.76 77 1011.9
20260903213049 25 211 0.0 4.8 0.00 1.60 0.76 76 1011.7
20260903211537 26 164 0.0 4.8 0.00 1.60 0.76 75 1011.5
20260903210035 26 118 0.0 4.8 0.00 1.60 0.76 75 1011.7
20260903204533 26 167 1.6 4.8 0.00 1.60 0.76 74 1011.7
20260903203045 26 178 0.0 4.8 0.00 1.60 0.76 74 1011.8
20260903201535 26 246 0.0 6.4 0.00 1.60 0.76 74 1011.9